Location: Newark
(44.6028°N, 124.0883°W)
Time: 11:14:00
(UTC+00:00)

Vanguard 1 - Pass Details

Date: 27 October 2019
Orbit: 652 x 3831 km, 34.2° (Epoch: 13 November)

Event Time Altitude Azimuth Distance (km) Brightness Sun altitude
Rises 00:38:01 0° 213° (SSW) 3,151 13.8 5.2°
Reaches altitude 10° 00:40:38 10° 196° (SSW) 2,426 12.7 4.8°
Maximum altitude 00:44:49 21° 147° (SSE) 2,132 11.7 4.1°
Drops below altitude 10° 00:50:35 10° 102° (ESE) 3,503 12.4 3.1°
Sets 00:55:23 0° 89° (E) 5,074 13.1 2.3°
